Regional Weather Roundup
Issued by NWS

Home | Current Version | Previous Version | Text Only | Print | Product List | Glossary Off
Versions: 1 2 3 4 5 6 7 8 9 10 11 12 13 14 15 16 17 18 19 20 21 22 23 24 25 26 27 28 29 30 31 32 33 34 35 36 37 38 39 40 41 42 43 44 45 46 47 48 49 50

000
ASUS43 KLMK 291702
RWRKY
KENTUCKY REGIONAL WEATHER ROUNDUP
NATIONAL WEATHER SERVICE LOUISVILLE KY
100 PM EDT SUN MAY 29 2016

NOTE "FAIR" INDICATES FEW OR NO CLOUDS BELOW 12,000 FEET
WITH NO SIGNIFICANT WEATHER AND/OR OBSTRUCTIONS TO VISIBILITY.

KYZ001>023-026-027-061>063-070>075-291800-
WESTERN AND SOUTH CENTRAL KENTUCKY

CITY           SKY/WX    TMP DP  RH WIND       PRES   REMARKS
PADUCAH        PTSUNNY   84  69  60 VRB7      30.10S
HENDERSON      MOSUNNY   84  66  54 W5        30.08S
OWENSBORO      PTSUNNY   86  70  58 SW9       30.10S HX  90
HOPKINSVILLE   NOT AVBL
BOWLING GREEN  MOSUNNY   82  67  60 VRB3      30.12F
GLASGOW        NOT AVBL
$$

KYZ024-025-028>034-038-045-046-053-291800-
NORTH CENTRAL KENTUCKY

CITY           SKY/WX    TMP DP  RH WIND       PRES   REMARKS
LOUISVILLE/SDF PTSUNNY   84  66  54 SW10      30.09F
LOUISVILLE/LOU MOSUNNY   84  66  54 VRB6      30.10S
FORT KNOX      MOSUNNY   83  67  57 S7        30.09F
$$

KYZ035>037-039>044-047>052-055>060-089>105-291800-
NORTHEAST KENTUCKY

CITY           SKY/WX    TMP DP  RH WIND       PRES   REMARKS
LEXINGTON      MOSUNNY   81  66  60 SW6       30.13F
COVINGTON      CLOUDY    83  67  58 SW7       30.10F
FRANKFORT      MOSUNNY   83  64  52 W5        30.10F
$$

KYZ054-064>069-076>088-106>120-291800-
SOUTHEAST KENTUCKY

CITY           SKY/WX    TMP DP  RH WIND       PRES   REMARKS
JACKSON        RAIN      68  65  90 CALM      30.17S FOG
LONDON         SUNNY     80  61  52 VRB3      30.15F
SOMERSET       NOT AVBL
MIDDLESBORO    CLOUDY    74  71  90 SE3       30.16F
MONTICELLO     SUNNY     81  65  58 N10       30.17S
$$




USA.gov is the U.S. government's official web portal to all federal, state and local government web resources and services.